Location: Mannheim
(49.4880°N, 8.4650°E)
Time: 18:30:55
(UTC+01:00)

ISS - Pass Details

Date: 27 September 2023
Orbit: 415 x 417 km, 51.6° (Epoch: 09 December)

Event Time Altitude Azimuth Distance (km) Brightness Sun altitude
Rises 20:42:46 0° 288° (WNW) 2,360 2.0 -15.1°
Reaches altitude 10° 20:44:52 10° 287° (WNW) 1,494 0.4 -15.4°
Maximum altitude 20:48:13 76° 202° (SSW) 433 -3.8 -15.9°
Enters shadow 20:49:16 40° 125° (SE) 625 -3.4 -16.1°
